RH
5 6 7 9 10 8 7 7 6 7 7 7 7 8 8 7 7 7 6 6 5 4 4 4 4 4 4 4 4 4 5 5 7 7 7 7 7 8 7 6 7 8
5 6 6 8 9 9 7 6 6 6 6 7 6 6 7 7 6 7 6 6 5 4 4 4 4 4 4 4 4 4 5 5 7 8 8 9 8 8 8 7 8 8
4 5 6 7 8 9 8 6 5 6 6 6 6 6 6 6 6 6 6 6 5 4 4 4 4 4 4 4 4 5 7 8 10 13 14 15 13 10 9 8 8 8
5 5 5 6 8 8 8 7 5 5 6 6 6 6 5 6 6 6 5 5 5 4 4 4 4 4 4 4 5 8 11 14 17 21 23 23 22 20 18 15 13 12
4 5 5 5 7 7 8 7 5 5 5 5 5 5 5 5 5 6 5 5 5 4 4 4 4 3 4 6 9 14 18 20 21 24 25 26 26 26 26 25 23 20
4 4 5 5 6 7 7 8 7 5 5 4 4 5 5 6 5 5 5 4 4 4 4 4 4 3 6 10 16 20 21 22 22 23 24 24 25 26 26 27 27 25
5 4 5 5 5 6 7 8 7 6 5 5 4 5 5 5 5 5 5 4 4 4 4 4 3 5 10 16 21 22 22 23 23 22 23 24 24 24 25 27 27 26
5 4 4 5 4 5 6 7 8 6 6 5 5 6 6 6 6 5 5 5 4 4 4 4 4 8 15 20 21 22 22 23 23 23 24 25 25 25 25 26 27 27
5 4 4 5 4 5 5 5 7 7 6 6 6 6 6 6 6 5 5 5 4 4 5 5 7 11 16 19 19 20 21 23 24 25 26 27 28 28 27 27 27 27
5 4 4 5 4 4 4 4 5 6 7 7 6 7 7 7 7 6 6 6 5 5 5 6 9 12 15 16 17 19 21 24 26 27 28 29 29 30 31 30 29 28
6 5 4 4 5 4 4 4 4 5 6 6 7 7 7 7 7 7 7 6 6 5 4 5 8 11 13 13 14 17 20 23 25 25 27 29 31 32 32 33 33 31
7 6 5 4 4 4 4 4 4 4 5 5 6 6 7 7 7 7 7 6 6 6 5 5 6 9 12 12 12 14 16 18 19 19 21 25 30 32 33 34 34 34
7 7 6 5 4 4 5 4 4 4 4 5 5 5 6 6 6 6 6 6 6 6 5 5 5 7 10 11 11 12 13 15 16 16 17 20 25 29 32 34 35 35
7 7 7 7 5 5 4 4 5 4 4 5 5 6 6 6 6 6 6 6 6 6 5 5 5 5 7 10 11 11 12 13 15 14 13 13 17 21 26 33 36 35
6 6 7 7 6 6 4 4 5 4 5 5 5 6 6 6 6 6 6 6 5 5 5 5 5 4 6 8 10 11 12 13 13 12 10 8 10 13 18 28 35 35
8 5 6 6 6 6 5 5 5 4 5 5 5 5 6 6 6 6 6 6 5 5 5 5 5 5 5 7 9 11 12 13 13 12 10 9 8 9 13 22 32 36
16 8 5 5 6 7 6 5 5 5 5 5 4 5 5 5 6 5 6 6 5 5 5 5 5 5 5 5 6 9 11 12 14 14 12 10 8 8 10 15 28 36
26 17 10 6 4 5 6 6 5 5 5 5 5 5 5 5 5 5 6 6 6 6 5 5 5 5 5 5 5 6 8 11 14 15 14 12 8 8 8 10 20 34
37 26 20 14 8 5 4 5 6 5 5 5 5 5 5 5 5 5 6 6 6 6 5 5 6 5 5 5 5 5 5 8 12 14 15 14 11 9 8 6 12 26
52 37 28 22 16 12 8 5 4 5 5 5 5 5 5 5 5 5 5 6 6 6 6 5 6 6 5 5 5 5 5 5 8 12 14 15 13 11 10 7 7 17
61 48 37 29 23 19 15 11 7 5 5 5 5 5 5 5 6 6 5 6 6 6 6 6 6 6 6 5 5 5 5 4 5 9 12 15 16 13 12 10 7 9
64 56 44 35 29 24 20 17 12 8 6 5 5 5 6 5 6 6 6 6 6 6 6 6 6 6 6 6 6 5 5 5 4 6 9 13 16 16 14 14 11 7
65 61 51 41 34 29 24 20 16 12 9 7 6 5 6 6 6 7 7 7 6 6 6 6 6 6 6 6 6 6 5 5 4 4 7 11 15 16 16 15 13 10
61 59 55 47 38 33 31 25 19 15 10 8 8 7 6 7 7 7 7 7 7 6 6 6 5 5 5 5 5 5 5 5 4 4 5 8 13 15 16 16 15 14
58 52 52 51 43 38 36 31 24 18 12 8 7 7 7 7 7 7 7 7 7 6 6 6 6 5 4 4 4 5 5 5 4 4 4 6 10 13 14 15 15 15
58 47 46 49 47 43 39 35 29 22 16 10 7 7 8 8 8 8 8 7 7 7 6 6 6 5 5 4 3 4 4 4 4 4 3 4 7 10 12 13 14 14
Wind_Speed
17 17 16 15 16 16 16 15 15 15 15 15 15 15 14 14 13 12 11 9 9 8 7 7 7 7 7 8 9 9 9 9 9 9 8 8 8 9 10 10 12 13
18 18 17 15 15 16 17 16 16 15 16 16 16 15 15 14 13 12 10 8 7 6 6 6 6 7 7 7 8 9 9 9 10 10 9 9 8 9 9 10 11 12
19 19 18 17 16 16 17 17 17 16 16 16 16 16 15 14 13 11 10 8 6 4 4 4 5 6 7 7 8 9 9 10 10 11 11 10 9 9 9 9 10 10
19 19 20 19 18 17 17 18 18 17 16 16 16 16 15 14 12 11 9 7 5 4 3 3 4 6 7 8 9 10 11 11 11 11 11 11 10 9 9 9 9 9
21 21 21 21 19 18 17 17 18 17 17 17 17 16 15 14 12 10 8 6 5 4 4 4 4 6 8 10 11 12 12 11 11 11 10 10 10 9 8 8 8 8
22 22 21 21 21 19 18 17 18 18 18 18 17 16 15 14 12 10 8 6 5 5 5 5 6 7 9 11 13 13 12 11 10 10 9 8 8 8 7 7 7 7
23 23 22 21 21 20 20 19 18 18 19 18 18 17 16 14 13 11 8 6 5 5 5 6 8 10 12 13 13 12 11 11 10 9 8 7 6 6 5 5 5 5
25 25 24 23 22 21 21 20 19 19 19 19 18 18 17 15 14 12 9 7 5 5 5 6 9 11 13 13 13 12 11 10 9 8 7 7 6 5 4 4 4 4
26 26 25 24 23 22 22 22 21 20 19 19 19 19 18 17 15 13 11 8 6 5 5 7 9 12 13 13 13 12 11 10 9 8 7 6 5 5 4 4 4 4
27 27 26 25 24 23 23 23 23 22 21 20 20 19 18 18 16 14 12 10 8 7 6 7 9 11 12 13 13 12 12 11 10 8 7 6 5 5 4 4 4 5
27 28 27 26 26 25 25 25 25 24 23 22 21 20 20 19 18 16 14 12 10 9 9 9 10 12 13 13 13 13 12 11 10 9 7 6 6 5 5 5 5 5
27 27 27 27 27 27 27 27 26 25 25 24 23 22 22 21 19 18 16 15 14 12 11 11 12 13 13 14 14 14 13 12 11 9 8 7 6 6 6 6 6 6
27 27 28 29 29 29 29 28 27 27 26 25 25 24 23 22 21 20 19 18 17 15 14 14 14 14 14 15 15 15 14 13 12 11 9 8 8 7 7 8 8 8
26 28 29 30 31 31 30 29 28 28 27 27 26 25 24 23 22 22 21 20 19 18 17 16 16 16 15 15 15 16 15 14 13 12 10 9 9 8 8 9 9 10
25 28 30 32 32 32 31 30 29 29 28 28 27 26 25 25 24 23 23 22 21 20 19 18 17 17 17 17 17 17 17 16 15 13 12 11 10 10 10 10 10 11
22 26 30 32 32 32 31 31 30 30 30 29 28 27 27 26 25 24 23 23 22 22 21 20 19 19 19 19 18 19 19 18 17 15 14 12 11 11 11 11 12 12
19 22 26 29 31 31 31 31 31 31 31 30 30 29 28 28 27 25 24 24 24 24 23 22 21 21 21 21 20 20 20 20 19 18 16 14 13 12 11 12 13 13
17 19 22 25 28 30 31 31 32 32 31 31 31 30 30 29 28 26 25 25 25 25 24 23 22 23 23 22 22 21 21 21 21 20 19 17 15 14 13 12 13 14
17 18 19 22 25 28 30 31 31 31 31 31 32 32 32 31 29 28 27 26 26 25 25 24 24 24 24 24 23 22 22 23 23 23 22 20 18 16 14 14 14 15
19 19 19 20 21 23 26 28 29 30 31 32 33 33 33 31 30 29 28 27 26 25 25 26 25 26 26 25 24 24 23 24 24 25 24 23 21 19 17 15 15 16
23 22 21 21 20 20 21 23 26 29 31 32 33 33 33 32 32 31 30 29 28 27 27 26 26 26 26 26 25 25 25 25 25 25 26 26 24 22 20 18 17 17
26 25 25 24 22 21 21 22 24 27 30 32 33 33 33 33 34 33 32 31 30 29 28 27 27 27 26 26 26 25 26 26 25 26 26 27 27 26 24 22 20 19
28 28 28 27 26 24 23 23 24 25 27 30 31 32 32 32 33 33 33 32 32 31 29 28 28 28 27 26 26 26 26 25 25 26 26 28 29 29 28 26 23 21
32 30 30 30 29 26 25 26 25 25 26 27 29 31 32 32 32 33 34 34 33 32 31 30 30 29 28 28 28 27 26 25 25 26 27 28 30 30 30 29 26 24
36 34 31 30 30 29 28 28 28 27 27 27 28 30 31 32 32 32 32 33 33 33 32 32 31 31 30 29 29 29 28 26 25 25 26 28 29 30 31 31 30 28
39 36 33 30 31 32 31 31 30 29 28 27 28 29 31 31 31 30 30 31 32 33 33 33 32 32 31 30 30 30 29 28 26 25 25 27 29 31 31 32 32 31
Wind_Direction
183 179 183 189 186 177 172 174 181 186 189 189 187 185 183 182 180 176 172 168 161 155 148 142 138 135 134 132 131 131 132 130 126 123 123 124 125 124 124 125 124 122
187 183 184 191 190 181 177 177 181 186 189 189 187 186 186 186 185 181 177 176 171 162 153 148 143 140 137 135 134 135 136 135 131 129 128 129 131 132 133 132 130 128
192 188 185 189 192 188 183 181 182 185 188 189 189 190 190 190 188 185 182 181 182 178 166 156 148 143 141 139 139 141 142 139 135 132 131 131 131 134 136 137 136 136
194 193 189 188 192 194 190 185 184 186 187 190 194 194 193 192 191 190 188 188 193 199 194 178 161 151 147 145 145 146 147 144 140 136 135 134 135 136 139 140 141 142
196 197 196 191 191 194 194 192 189 189 191 194 196 198 197 196 196 196 196 199 207 216 216 196 178 163 154 150 150 151 152 151 148 144 142 141 141 142 144 146 147 149
198 199 201 197 192 191 194 197 196 194 195 197 199 201 203 204 205 205 203 206 216 224 221 202 182 167 158 154 154 155 156 155 155 152 149 148 146 147 149 152 155 158
201 201 203 203 198 192 193 199 201 199 199 200 202 204 208 212 215 216 212 210 218 227 221 201 181 167 162 160 158 158 158 157 158 157 156 155 153 154 159 164 169 172
205 203 204 205 203 198 196 198 201 204 204 204 206 208 212 217 222 224 222 218 221 230 224 200 182 170 166 165 164 162 161 159 160 161 162 162 163 168 175 183 193 198
211 207 205 205 205 204 202 199 201 205 207 208 211 214 216 220 225 229 230 227 226 232 228 205 188 179 173 171 169 168 166 165 165 167 170 173 177 184 189 195 206 219
215 213 209 206 206 207 207 205 203 204 207 209 213 217 221 225 228 232 235 235 232 232 231 219 201 190 183 178 177 175 173 172 172 173 178 182 190 200 206 209 214 221
216 217 214 209 208 209 209 209 208 206 207 210 213 216 221 226 228 232 235 235 232 229 229 228 217 204 195 189 185 182 180 180 181 183 187 192 201 212 222 228 231 231
213 216 217 215 212 210 211 211 210 208 208 210 213 215 218 223 226 228 231 232 232 229 228 230 227 218 207 198 194 190 187 187 189 192 197 202 212 224 233 239 241 242
211 212 214 216 215 214 213 212 211 210 209 209 212 215 217 221 223 225 227 229 230 229 228 230 230 227 219 209 202 199 196 193 193 196 201 207 216 228 239 247 249 248
210 209 210 213 215 215 215 214 213 212 210 211 212 214 217 220 222 224 225 227 229 229 229 230 231 232 228 220 212 208 205 201 199 202 206 211 220 229 239 249 253 254
210 209 209 211 213 215 215 215 215 213 212 213 212 213 216 219 222 224 226 227 229 230 231 230 232 234 233 228 222 217 213 210 207 208 211 215 221 229 239 248 254 257
211 211 211 212 214 215 215 214 215 215 214 214 214 214 216 219 221 223 225 228 229 231 232 232 232 235 235 233 229 225 221 217 213 214 216 218 221 226 236 244 252 258
213 214 213 214 214 215 216 215 215 215 215 215 215 215 217 219 221 222 224 226 229 230 231 232 233 235 237 236 234 232 230 225 220 219 220 222 226 230 234 241 249 257
214 216 214 214 215 216 216 216 216 216 216 216 216 216 218 219 220 222 223 225 227 229 230 231 233 236 237 238 237 236 235 232 228 224 224 225 229 233 238 241 245 252
221 220 217 216 216 217 218 218 218 217 217 217 217 217 218 219 220 221 223 224 225 227 229 230 232 235 237 239 239 237 237 236 233 229 227 228 231 234 238 241 243 248
224 224 222 220 218 219 221 221 220 219 218 217 217 218 219 219 220 221 222 224 224 225 227 228 230 234 237 239 239 238 236 235 235 233 229 228 232 235 237 241 243 244
219 221 222 223 223 222 221 221 221 219 219 218 218 219 219 218 218 220 221 223 222 222 224 226 228 232 236 238 239 239 237 235 234 234 232 230 232 236 240 243 245 244
215 218 220 221 223 224 223 222 222 221 220 219 219 218 218 217 217 218 220 222 222 222 222 224 226 230 234 237 239 239 238 236 233 233 233 232 233 236 239 243 246 248
212 216 219 219 219 220 222 224 224 223 222 221 219 219 219 218 217 217 218 219 222 223 222 222 225 228 231 234 238 240 239 237 234 233 232 232 233 236 239 242 245 249
209 212 217 220 219 216 219 222 224 225 224 222 221 220 219 219 218 217 217 218 220 222 222 222 224 226 228 231 234 238 239 237 234 232 231 230 232 236 240 242 245 249
207 208 212 219 220 218 217 220 222 223 224 222 221 219 219 220 220 219 219 218 219 221 222 223 223 226 228 230 232 235 237 237 235 232 231 230 231 234 239 242 245 248
208 208 209 214 220 220 219 218 220 222 223 222 220 219 219 220 221 221 221 220 220 220 222 224 225 227 228 230 232 235 236 238 237 233 231 230 230 232 235 239 243 246